Location: ????????
(55.0559°N, 39.1270°E)
Time: 07:51:07
(UTC+00:00)

COSMOS 2455 - Pass Details

Date: 15 November 2025
Orbit: 898 x 910 km, 67.1° (Epoch: 14 December)

Event Time Altitude Azimuth Distance (km) Brightness Sun altitude
Exits shadow 02:29:14 25° 321° (NW) 1,780 4.0 -20.6°
Maximum altitude 02:30:56 28° 348° (NNW) 1,649 4.0 -20.4°
Drops below altitude 10° 02:36:05 10° 46° (NE) 2,608 5.8 -19.6°
Sets 02:39:00 0° 59° (ENE) 3,550 6.8 -19.2°
